Location: Narrabri
(30.3170°S, 149.7830°E)
Time: 03:10:05
(UTC+10:00)

Tiangong 2 - Visible Passes

Search period start: 20 September 2018 00:00
Search period end: 30 September 2018 00:00
Orbit: 384 x 394 km, 42.8° (Epoch: 19 September)

Date Brightness Start Highest point End Pass type
(mag) Time Alt. Az. Time Alt. Az. Time Alt. Az.
20 Sep 4.0 04:16:10 10° S 04:16:56 11° S 04:17:57 10° SSE visible
21 Sep 3.4 04:53:39 10° SSW 04:56:12 21° SSE 04:58:45 10° ESE visible
22 Sep 3.9 03:57:55 15° SSE 03:57:55 15° SSE 03:59:50 10° SE visible
23 Sep 2.5 04:35:07 19° SSW 04:36:58 36° SSE 04:40:00 10° E visible
24 Sep 4.1 03:40:06 17° ESE 03:40:06 17° ESE 03:41:20 10° ESE visible
24 Sep 1.5 05:12:35 10° WSW 05:15:42 48° NW 05:18:48 10° NE visible
25 Sep 1.1 04:17:37 78° SE 04:17:37 78° SE 04:20:50 10° ENE visible
26 Sep 2.6 04:55:19 19° WNW 04:56:08 20° NW 04:58:36 10° N visible
27 Sep 3.9 04:00:49 13° NNE 04:00:49 13° NNE 04:01:12 10° NE visible
28 Sep 2.4 19:28:47 10° NW 19:30:45 32° NNW 19:30:45 32° NNW visible
29 Sep 2.4 18:31:12 10° NNW 18:33:51 24° NE 18:36:17 11° E visible
29 Sep 4.0 20:07:36 10° W 20:08:38 18° W 20:08:38 18° W visible
